Location: Baumgarten
(49.0970°N, 12.7493°E)
Time: 18:08:19
(UTC+00:00)

NOSS 3-4 (C) - Pass Details

Date: 05 July 2020
Orbit: 891 x 1321 km, 63.4° (Epoch: 12 July)

Event Time Altitude Azimuth Distance (km) Brightness Sun altitude
Rises 22:05:37 0° 317° (NW) 3,805 7.8 -16.6°
Reaches altitude 10° 22:08:08 10° 315° (NW) 2,907 6.9 -16.8°
Maximum altitude 22:15:02 72° 234° (SW) 1,213 3.9 -17.0°
Enters shadow 22:19:54 24° 155° (SSE) 2,260 4.8 -17.2°
